Terug naar catalogus

METEOR 3-6

ActiefWeerPO
NORAD 22969·PAYLOAD·🇷🇺 Russia

Gelanceerd Jan 25, 1994 vanaf Plesetsk Cosmodrome

Loading…

Volgende Passages (komende 24 uur)

TLE

VersSource: Space-Track

Epoch: Sep 14, 2026, 06:37 UTC

1 22969U 94003A   26257.27634163  .00000150  00000-0  35761-3 0  9999
2 22969  82.5654  24.3775 0014647 349.5775  10.5042 13.17064207568967

Volg METEOR 3-6 in realtime met AllMySat

Download on the App Store